Location: Baggett Branch
(32.6074°N, 97.0167°W)
Time: 09:57:21
(UTC+00:00)

Cosmos 2173 Rocket - Pass Details

Date: 10 February 2026
Orbit: 943 x 1000 km, 83.0° (Epoch: 7 March)

Event Time Altitude Azimuth Distance (km) Brightness Sun altitude
Rises 12:40:05 0° 178° (S) 3,687 7.2 -8.1°
Reaches altitude 10° 12:42:35 10° 176° (S) 2,747 6.6 -7.6°
Maximum altitude 12:48:52 71° 93° (E) 1,051 4.5 -6.3°
Drops below altitude 10° 12:55:13 10° 11° (N) 2,773 6.4 -5.0°
Sets 12:57:45 0° 9° (N) 3,725 7.0 -4.4°
